Torna al catalogo

STARLINK-31182

AttivoComunicazioniVLEO
NORAD 59159·PAYLOAD·🇺🇸 United States

Lanciato Mar 4, 2024 da Cape Canaveral Space Force Station

Loading…

Prossimi Passaggi (prossime 24 ore)

TLE

AggiornatoSource: CelesTrak SupGP

Epoca: Sep 14, 2026, 21:39 UTC

1 59159C 24044H   26257.90256944 -.00035471  00000+0 -12852-2 0  2572
2 59159  43.0019 118.1054 0001270 271.8718 221.3476 15.27585218    12

Traccia STARLINK-31182 in tempo reale con AllMySat

Download on the App Store